| time (UTC) | temp F | wind direction | speed knots | gust knots | rain 1hr in | rain 24hr in | rain mn in | humidity % | barometer mb |
| 20260507032803 | 64 | 308 | 2.6 | 4.3 | 0.00 | 0.00 | 0.00 | 75 | 1015.8 |
| 20260507031803 | 64 | 317 | 0.9 | 4.3 | 0.00 | 0.00 | 0.00 | 75 | 1015.6 |
| 20260507025802 | 65 | 301 | 3.5 | 8.7 | 0.00 | 0.00 | 0.00 | 73 | 1015.5 |
| 20260507024803 | 65 | 297 | 4.3 | 8.7 | 0.00 | 0.00 | 0.00 | 74 | 1015.4 |
| 20260507015803 | 69 | 283 | 4.3 | 8.7 | 0.00 | 0.00 | 0.00 | 66 | 1014.9 |
| 20260507014802 | 70 | 313 | 2.6 | 7.8 | 0.00 | 0.00 | 0.00 | 65 | 1014.9 |
| 20260507012803 | 70 | 301 | 3.5 | 9.6 | 0.00 | 0.00 | 0.00 | 66 | 1014.7 |
| 20260507011824 | 70 | 283 | 4.3 | 10.4 | 0.00 | 0.00 | 0.00 | 66 | 1014.6 |
| 20260507005803 | 71 | 285 | 3.5 | 9.6 | 0.00 | 0.00 | 0.00 | 65 | 1014.5 |
| 20260507004802 | 72 | 303 | 6.1 | 11.3 | 0.00 | 0.00 | 0.00 | 63 | 1014.5 |
| 20260507002802 | 73 | 277 | 6.1 | 10.4 | 0.00 | 0.00 | 0.00 | 58 | 1014.5 |
| 20260507001803 | 75 | 293 | 5.2 | 10.4 | 0.00 | 0.00 | 0.00 | 57 | 1014.4 |
| 20260506235802 | 77 | 228 | 2.6 | 7.8 | 0.00 | 0.00 | 0.00 | 57 | 1014.4 |
| 20260506234803 | 76 | 240 | 1.7 | 7.8 | 0.00 | 0.00 | 0.00 | 57 | 1014.4 |
| 20260506232803 | 76 | 224 | 4.3 | 11.3 | 0.00 | 0.00 | 0.00 | 58 | 1014.4 |
| 20260506231803 | 76 | 232 | 3.5 | 8.7 | 0.00 | 0.00 | 0.00 | 58 | 1014.5 |
| 20260506225802 | 75 | 216 | 3.5 | 13.9 | 0.00 | 0.00 | 0.00 | 60 | 1014.8 |
| 20260506224803 | 75 | 237 | 3.5 | 8.7 | 0.00 | 0.00 | 0.00 | 57 | 1014.9 |
| 20260506222803 | 75 | 240 | 5.2 | 9.6 | 0.00 | 0.00 | 0.00 | 58 | 1015.1 |
| 20260506221802 | 75 | 220 | 3.5 | 10.4 | 0.00 | 0.00 | 0.00 | 61 | 1015.0 |
| 20260506215803 | 74 | 236 | 4.3 | 12.2 | 0.00 | 0.00 | 0.00 | 61 | 1015.5 |
| 20260506214824 | 74 | 212 | 1.7 | 10.4 | 0.00 | 0.00 | 0.00 | 59 | 1015.6 |
| 20260506212803 | 74 | 224 | 4.3 | 9.6 | 0.00 | 0.00 | 0.00 | 60 | 1015.8 |
| 20260506211803 | 74 | 232 | 3.5 | 9.6 | 0.00 | 0.00 | 0.00 | 60 | 1016.0 |
| 20260506205803 | 73 | 229 | 3.5 | 9.6 | 0.00 | 0.00 | 0.00 | 58 | 1016.1 |
| 20260506204803 | 73 | 250 | 3.5 | 10.4 | 0.00 | 0.00 | 0.00 | 60 | 1016.2 |
| 20260506202802 | 73 | 212 | 3.5 | 8.7 | 0.00 | 0.00 | 0.00 | 61 | 1016.4 |
| 20260506201803 | 73 | 216 | 2.6 | 8.7 | 0.00 | 0.00 | 0.00 | 60 | 1016.6 |
| 20260506195803 | 72 | 221 | 3.5 | 8.7 | 0.00 | 0.00 | 0.00 | 63 | 1016.7 |
| 20260506194802 | 73 | 211 | 2.6 | 9.6 | 0.00 | 0.00 | 0.00 | 61 | 1016.8 |
| 20260506192803 | 72 | 208 | 2.6 | 7.8 | 0.00 | 0.00 | 0.00 | 61 | 1016.9 |
| 20260506191803 | 72 | 222 | 3.5 | 7.8 | 0.00 | 0.00 | 0.00 | 64 | 1017.0 |
| 20260506185803 | 73 | 219 | 1.7 | 7.8 | 0.00 | 0.00 | 0.00 | 64 | 1017.2 |
| 20260506184803 | 72 | 210 | 1.7 | 6.1 | 0.00 | 0.00 | 0.00 | 66 | 1017.3 |
| 20260506182803 | 72 | 210 | 2.6 | 6.1 | 0.00 | 0.00 | 0.00 | 67 | 1017.4 |
| 20260506181824 | 71 | 201 | 2.6 | 8.7 | 0.00 | 0.00 | 0.00 | 68 | 1017.4 |
| 20260506175802 | 71 | 177 | 1.7 | 5.2 | 0.00 | 0.00 | 0.00 | 71 | 1017.5 |
| 20260506174803 | 70 | 225 | 4.3 | 10.4 | 0.00 | 0.00 | 0.00 | 70 | 1017.6 |
| 20260506172803 | 69 | 213 | 1.7 | 7.8 | 0.00 | 0.00 | 0.00 | 70 | 1017.5 |
| 20260506171802 | 69 | 170 | 2.6 | 5.2 | 0.00 | 0.00 | 0.00 | 71 | 1017.5 |
| 20260506165824 | 70 | 178 | 1.7 | 6.1 | 0.00 | 0.00 | 0.00 | 68 | 1017.4 |
| 20260506164802 | 69 | 200 | 1.7 | 6.1 | 0.00 | 0.00 | 0.00 | 68 | 1017.4 |
| 20260506162802 | 69 | 317 | 1.7 | 5.2 | 0.00 | 0.00 | 0.00 | 68 | 1017.5 |
| 20260506161803 | 68 | 207 | 1.7 | 4.3 | 0.00 | 0.00 | 0.00 | 70 | 1017.4 |
| 20260506155824 | 67 | 147 | 0.9 | 4.3 | 0.00 | 0.00 | 0.00 | 72 | 1017.6 |
| 20260506154803 | 67 | 119 | 1.7 | 4.3 | 0.00 | 0.00 | 0.00 | 74 | 1017.6 |
| 20260506152802 | 65 | 61 | 2.6 | 4.3 | 0.00 | 0.00 | 0.00 | 77 | 1017.6 |
| 20260506151824 | 63 | 79 | 1.7 | 4.3 | 0.00 | 0.00 | 0.00 | 79 | 1017.7 |
| 20260506145803 | 61 | 93 | 1.7 | 4.3 | 0.00 | 0.00 | 0.00 | 81 | 1017.6 |
| 20260506144803 | 60 | 105 | 1.7 | 4.3 | 0.00 | 0.00 | 0.00 | 84 | 1017.6 |
| 20260506142823 | 56 | 88 | 0.9 | 2.6 | 0.00 | 0.00 | 0.00 | 95 | 1017.6 |
| 20260506141803 | 55 | 82 | 0.9 | 3.5 | 0.00 | 0.00 | 0.00 | 99 | 1017.5 |
| 20260506135803 | 52 | 63 | 0.0 | 1.7 | 0.00 | 0.00 | 0.00 | 98 | 1017.4 |
| 20260506134802 | 52 | 324 | 0.0 | 0.9 | 0.00 | 0.00 | 0.00 | 98 | 1017.4 |
| 20260506132803 | 52 | 264 | 0.0 | 0.9 | 0.00 | 0.00 | 0.00 | 97 | 1017.3 |
| 20260506131802 | 52 | 297 | 0.0 | 0.9 | 0.00 | 0.00 | 0.00 | 97 | 1017.0 |
| 20260506125803 | 52 | 51 | 0.0 | 0.9 | 0.00 | 0.00 | 0.00 | 96 | 1016.8 |
| 20260506124802 | 52 | 15 | 0.0 | 0.9 | 0.00 | 0.00 | 0.00 | 96 | 1016.8 |
| 20260506122803 | 52 | 309 | 0.0 | 0.0 | 0.00 | 0.00 | 0.00 | 96 | 1016.5 |
| 20260506121803 | 53 | 9 | 0.0 | 0.9 | 0.00 | 0.00 | 0.00 | 96 | 1016.5 |
| 20260506115802 | 53 | 37 | 0.0 | 0.9 | 0.00 | 0.00 | 0.00 | 96 | 1016.4 |
| 20260506114803 | 53 | 18 | 0.0 | 0.9 | 0.00 | 0.00 | 0.00 | 96 | 1016.4 |
| 20260506112802 | 54 | 51 | 0.0 | 0.9 | 0.00 | 0.00 | 0.00 | 96 | 1016.2 |
| 20260506111803 | 54 | 42 | 0.0 | 0.9 | 0.00 | 0.00 | 0.00 | 96 | 1016.3 |
| 20260506105803 | 54 | 83 | 0.0 | 1.7 | 0.00 | 0.03 | 0.00 | 97 | 1016.2 |
| 20260506104803 | 54 | 59 | 0.9 | 1.7 | 0.00 | 0.03 | 0.00 | 95 | 1016.3 |
| 20260506102823 | 55 | 9 | 0.0 | 0.9 | 0.00 | 0.03 | 0.00 | 95 | 1016.2 |
| 20260506101803 | 55 | 39 | 0.0 | 0.9 | 0.00 | 0.03 | 0.00 | 95 | 1016.2 |
| 20260506095803 | 55 | 37 | 0.0 | 0.9 | 0.00 | 0.03 | 0.00 | 95 | 1016.3 |
| 20260506094803 | 55 | 90 | 0.9 | 0.9 | 0.00 | 0.03 | 0.00 | 95 | 1016.3 |
| 20260506092803 | 56 | 59 | 0.0 | 0.9 | 0.00 | 0.03 | 0.00 | 95 | 1016.4 |
| 20260506091803 | 56 | 106 | 0.0 | 0.9 | 0.00 | 0.04 | 0.00 | 95 | 1016.4 |
| 20260506085803 | 55 | 115 | 0.0 | 0.9 | 0.00 | 0.05 | 0.00 | 94 | 1016.5 |
| 20260506084803 | 56 | 93 | 0.0 | 0.9 | 0.00 | 0.05 | 0.00 | 93 | 1016.5 |
| 20260506082803 | 56 | 165 | 0.0 | 0.9 | 0.00 | 0.06 | 0.00 | 94 | 1016.6 |
| 20260506081803 | 56 | 337 | 0.0 | 0.9 | 0.00 | 0.09 | 0.00 | 94 | 1016.7 |
| 20260506072803 | 56 | 134 | 0.0 | 1.7 | 0.00 | 0.16 | 0.13 | 93 | 1016.7 |
| 20260506071845 | 56 | 151 | 0.0 | 1.7 | 0.00 | 0.16 | 0.13 | 93 | 1016.7 |
| 20260506061802 | 57 | 318 | 0.0 | 0.9 | 0.00 | 0.19 | 0.13 | 91 | 1016.3 |
| 20260506044803 | 60 | 237 | 0.9 | 1.7 | 0.00 | 0.20 | 0.13 | 85 | 1015.4 |
| 20260506042803 | 60 | 224 | 0.9 | 2.6 | 0.00 | 0.20 | 0.13 | 83 | 1015.3 |
| 20260506041802 | 61 | 226 | 0.0 | 1.7 | 0.00 | 0.20 | 0.13 | 82 | 1015.3 |
| 20260506035803 | 61 | 185 | 0.0 | 1.7 | 0.00 | 0.20 | 0.13 | 79 | 1014.9 |
| 20260506034803 | 62 | 224 | 0.9 | 3.5 | 0.00 | 0.20 | 0.13 | 78 | 1014.8 |